Location: ????????
(55.7667°N, 37.4833°E)
Time: 02:48:51
(UTC+00:00)

SPOT 3 Rocket - Pass Details

Date: 19 May 2025
Orbit: 775 x 790 km, 98.5° (Epoch: 14 June)

Event Time Altitude Azimuth Distance (km) Brightness Sun altitude
Exits shadow 18:22:26 - 153° (SSE) 2,794 5.8 -4.9°
Reaches altitude 10° 18:23:36 10° 152° (SSE) 2,327 5.4 -5.0°
Maximum altitude 18:28:42 72° 70° (ENE) 822 3.6 -5.5°
Drops below altitude 10° 18:33:50 10° 347° (NNW) 2,339 7.2 -5.9°
Sets 18:36:10 0° 345° (NNW) 3,270 8.1 -6.2°
